[[{"header":{"parameterUnit":"m.s-1","parameterCategory":1,"la1":30.2991,"la2":30.254,"lo1":-89.0895,"lo2":-89.0444,"dx":0.0017,"dy":0.0017,"nx":28,"ny":28,"refTime":"2022-11-15T15:00:00:Z","depth":0,"parameterNumber":2,"parameterNumberName":"U-component_of_WINDS"},"data":[0,0,0,0,0,0,0,0,0,0,0,0,0,0,0,0,0,0,0,0,0,0,0,0,0,0,0,0,0,0,0,0,0,0,0,0,0,0,0,0,0,0,0,0,0,0,0,0,0,0,0,0,0,0,0,0,0,0,-0.3043,-0.3044,0,-0.3153,-0.3154,-0.3155,-0.3143,-0.3142,-0.314,-0.3138,-0.3254,-0.3259,-0.3264,0,0,0,0,0,0,0,0,0,0,0,0,0,-0.2826,-0.283,-0.3043,-0.3044,-0.3046,-0.3152,-0.3154,-0.3155,-0.3144,-0.3142,-0.314,-0.3138,-0.3253,-0.3258,-0.3264,0,0,0,0,0,0,0,0,0,0,0,0,0,-0.2926,-0.2831,-0.3043,-0.3052,-0.3054,-0.3152,-0.3154,-0.3156,-0.3144,-0.3142,-0.3139,-0.3137,-0.3251,-0.3258,-0.3265,-0.3361,0,0,-0.3286,-0.329,0,0,0,0,0,0,0,0,-0.2921,-0.2934,-0.305,-0.3052,-0.3054,-0.3132,-0.312,-0.3225,-0.3145,-0.311,-0.3138,-0.3135,-0.3216,-0.3226,-0.3252,-0.3366,-0.3371,-0.3287,-0.3291,-0.3294,-0.3296,0,0,0,0,0,0,0,-0.2914,-0.293,-0.3086,-0.3051,-0.3054,-0.3052,-0.3064,-0.314,-0.3177,-0.3113,-0.3112,-0.3125,-0.3217,-0.3245,-0.3255,-0.3373,-0.3287,-0.3293,-0.3298,-0.33,-0.3571,-0.3574,0,0,0,0,0,0,-0.2904,-0.2924,-0.3083,-0.309,-0.298,-0.3058,-0.3071,-0.311,-0.3176,-0.3183,-0.3128,-0.3124,-0.3235,-0.3247,-0.3259,-0.3376,-0.3294,-0.3301,-0.3305,-0.3569,-0.3572,-0.3575,0,0,0,0,0,0,-0.2899,-0.2918,-0.3078,-0.3007,-0.3027,-0.3065,-0.3108,-0.3113,-0.3142,-0.3187,-0.3193,-0.315,-0.3233,-0.3249,-0.3335,-0.338,-0.3304,-0.3311,-0.3565,-0.357,-0.3574,-0.3612,0,0,0,0,0,0,-0.2893,-0.2917,-0.2953,-0.3007,-0.3031,-0.3153,-0.3111,-0.3117,-0.3154,-0.3151,-0.3209,-0.3217,-0.3232,-0.3325,-0.3342,-0.3389,-0.3316,-0.3561,-0.3567,-0.3572,-0.3607,-0.3617,-0.3626,0,0,0,0,0,-0.2885,-0.296,-0.2955,-0.2974,-0.3077,-0.3155,-0.3169,-0.3184,-0.3157,-0.3195,-0.3223,-0.3215,-0.3372,-0.3334,-0.3353,-0.3402,-0.3559,-0.3565,-0.3572,-0.3602,-0.3615,-0.3625,0,0,0,0,0,0,-0.2912,-0.2967,-0.2962,-0.3057,-0.3101,-0.3153,-0.3201,-0.3197,-0.3251,-0.3246,-0.3263,-0.3277,-0.3364,-0.3391,-0.3348,-0.3499,-0.3462,-0.3473,-0.3478,-0.349,-0.35,-0.3492,-0.3322,0,0,0,0,0,-0.2928,-0.2986,-0.3032,-0.3111,-0.3133,-0.3163,-0.3198,-0.3205,-0.3253,-0.3272,-0.3307,-0.3354,-0.3414,-0.3453,-0.3511,-0.3609,-0.3623,-0.3653,-0.3662,-0.367,-0.368,-0.3735,-0.3749,-0.3597,-0.3597,-0.3597,0,0,-0.2963,-0.3001,-0.3037,-0.3117,-0.3152,-0.3213,-0.3179,-0.3245,-0.329,-0.3282,-0.3366,-0.3393,-0.3447,-0.354,-0.3583,-0.3566,-0.3724,-0.3678,-0.3684,-0.369,-0.3743,-0.3757,-0.377,-0.3602,-0.3601,-0.36,0,0,-0.3059,-0.3092,-0.3162,-0.3198,-0.3251,-0.327,-0.3287,-0.3339,-0.3356,-0.344,-0.3435,-0.349,-0.3592,-0.3631,-0.3664,-0.3772,-0.3767,-0.379,-0.3841,-0.3894,-0.3906,-0.3917,-0.3957,-0.3971,-0.38,-0.38,-0.38,0,-0.3097,-0.3187,-0.3199,-0.3265,-0.3301,-0.3294,-0.3365,-0.34,-0.347,-0.3495,-0.3474,-0.3602,-0.3638,-0.374,-0.3766,-0.3793,-0.3813,-0.3785,-0.3903,-0.3914,-0.3924,-0.3963,-0.3978,-0.3802,-0.3802,-0.3802,-0.3802,0,-0.3231,-0.3294,-0.3344,-0.341,-0.3451,-0.352,-0.3543,-0.3583,-0.3586,-0.3608,-0.3693,-0.3735,-0.3801,-0.3825,-0.383,-0.3929,-0.3916,-0.3899,-0.3863,-0.3941,-0.3978,-0.3992,-0.3806,-0.3805,-0.3804,-0.3804,0,0,-0.335,-0.342,-0.3438,-0.3468,-0.3525,-0.3575,-0.3642,-0.3706,-0.3741,-0.3788,-0.3847,-0.3932,-0.3917,-0.3954,-0.3962,-0.4009,-0.4093,-0.3986,-0.3987,-0.4006,-0.4206,-0.422,-0.4237,-0.4089,-0.4091,-0.4094,-0.4202,0,-0.3452,-0.3572,-0.3584,-0.3691,-0.375,-0.3743,-0.3802,-0.3844,-0.3866,-0.3919,-0.3943,-0.4004,-0.3977,-0.4,-0.4045,-0.4073,-0.4134,-0.4065,-0.4145,-0.4148,-0.4134,-0.4256,-0.4271,-0.4371,-0.4216,-0.4218,-0.422,0,-0.3589,-0.364,-0.3753,-0.3801,-0.3826,-0.3879,-0.3938,-0.3988,-0.4036,-0.4048,-0.4089,-0.4091,-0.4161,-0.412,-0.4218,-0.4171,-0.4204,-0.4222,-0.4227,-0.4237,-0.419,-0.4271,-0.4403,-0.4419,-0.4242,-0.424,-0.4239,0,-0.3666,-0.3762,-0.3842,-0.3868,-0.3926,-0.3964,-0.399,-0.4035,-0.4072,-0.4123,-0.4147,-0.4206,-0.4239,-0.4285,-0.4303,-0.4271,-0.4401,-0.436,-0.4414,-0.4414,-0.4444,-0.4443,-0.4586,-0.4462,-0.4461,-0.4461,-0.4461,0,-0.3781,-0.3851,-0.3878,-0.3927,-0.4005,-0.4018,-0.4095,-0.412,-0.4159,-0.4214,-0.4211,-0.4263,-0.4282,-0.4337,-0.4351,-0.4431,-0.4445,-0.4458,-0.4462,-0.446,-0.4459,-0.4484,-0.4478,-0.4465,-0.4464,-0.4463,-0.4463,0,-0.3882,-0.3902,-0.3989,-0.4037,-0.405,-0.4106,-0.4147,-0.4195,-0.4214,-0.4284,-0.4301,-0.4332,-0.4396,-0.4417,-0.4496,-0.4505,-0.4599,-0.4595,-0.4583,-0.4584,-0.4637,-0.4633,-0.4804,-0.4827,-0.4685,-0.4686,-0.4687,0,-0.3955,-0.4009,-0.4061,-0.4097,-0.4124,-0.4182,-0.422,-0.4234,-0.4273,-0.433,-0.4371,-0.4435,-0.4487,-0.459,-0.462,-0.4679,-0.4679,-0.4734,-0.4688,-0.4684,-0.4682,-0.4679,-0.4685,-0.4744,-0.4745,-0.4747,-0.4748,0,-0.4084,-0.4091,-0.4144,-0.4201,-0.4246,-0.4291,-0.4336,-0.4365,-0.4386,-0.443,-0.4495,-0.4535,-0.4613,-0.4677,-0.4737,-0.4765,-0.4761,-0.4761,-0.4777,-0.4778,-0.4769,-0.4776,-0.4609,-0.4758,-0.4757,-0.4756,-0.4756,-0.4755,-0.4175,-0.4222,-0.4266,-0.4326,-0.436,-0.4401,-0.4449,-0.4473,-0.4527,-0.4592,-0.4597,-0.4667,-0.4713,-0.4793,-0.4823,-0.4879,-0.4864,-0.4886,-0.4893,-0.4899,-0.4904,-0.4757,-0.489,-0.489,-0.489,-0.4889,-0.4889,0,-0.4305,-0.4333,-0.4387,-0.4448,-0.4495,-0.4484,-0.4532,-0.4572,-0.4634,-0.4676,-0.4726,-0.4801,-0.4862,-0.4896,-0.4957,-0.4995,-0.4995,-0.5011,-0.501,-0.5016,-0.4913,-0.4894,-0.501,-0.501,-0.501,-0.501,-0.501,-0.501,-0.4379,-0.4458,-0.447,-0.4567,-0.4594,-0.4662,-0.4691,-0.4729,-0.4762,-0.4845,-0.4896,-0.4916,-0.4955,-0.5019,-0.5075,-0.5083,-0.5106,-0.5125,-0.5132,-0.5036,-0.5023,-0.5012,-0.4994,-0.5129,-0.5129,-0.5231,-0.5231,-0.5232]},{"header":{"parameterUnit":"m.s-1","parameterCategory":1,"la1":30.2991,"la2":30.254,"lo1":-89.0895,"lo2":-89.0444,"dx":0.0017,"dy":0.0017,"nx":28,"ny":28,"refTime":"2022-11-15T15:00:00:Z","depth":0,"parameterNumber":3,"parameterNumberName":"V-component_of_WINDS"},"data":[0,0,0,0,0,0,0,0,0,0,0,0,0,0,0,0,0,0,0,0,0,0,0,0,0,0,0,0,0,0,0,0,0,0,0,0,0,0,0,0,0,0,0,0,0,0,0,0,0,0,0,0,0,0,0,0,0,0,-6.8759,-6.8761,0,-6.8926,-6.8928,-6.893,-6.8869,-6.8865,-6.8861,-6.8858,-6.9026,-6.9034,-6.9042,0,0,0,0,0,0,0,0,0,0,0,0,0,-6.8385,-6.8392,-6.8759,-6.8761,-6.8763,-6.8926,-6.8928,-6.893,-6.887,-6.8865,-6.886,-6.8856,-6.9024,-6.9033,-6.9043,0,0,0,0,0,0,0,0,0,0,0,0,0,-6.8549,-6.8394,-6.8759,-6.8753,-6.8754,-6.8925,-6.8928,-6.8931,-6.8871,-6.8865,-6.8859,-6.8854,-6.9021,-6.9032,-6.9044,-6.9231,0,0,-6.9081,-6.9086,0,0,0,0,0,0,0,0,-6.854,-6.8563,-6.8752,-6.8753,-6.8755,-6.8871,-6.8858,-6.9031,-6.8872,-6.8826,-6.8858,-6.8851,-6.8979,-6.8994,-6.9038,-6.9239,-6.9246,-6.9082,-6.9089,-6.9094,-6.9098,0,0,0,0,0,0,0,-6.8529,-6.8555,-6.8825,-6.8754,-6.8757,-6.874,-6.8758,-6.889,-6.8932,-6.883,-6.8826,-6.8846,-6.8979,-6.9026,-6.9041,-6.9248,-6.9081,-6.9092,-6.9099,-6.9104,-6.9608,-6.9614,0,0,0,0,0,0,-6.8517,-6.8546,-6.882,-6.883,-6.8631,-6.8752,-6.8771,-6.8839,-6.8931,-6.8939,-6.8851,-6.8843,-6.9009,-6.9027,-6.9047,-6.927,-6.9094,-6.9105,-6.9112,-6.9602,-6.961,-6.9616,0,0,0,0,0,0,-6.8509,-6.8542,-6.8813,-6.8687,-6.8721,-6.8764,-6.8842,-6.8846,-6.8893,-6.8947,-6.8953,-6.8892,-6.9005,-6.903,-6.9185,-6.9275,-6.9111,-6.9122,-6.9595,-6.9605,-6.9613,-6.9719,0,0,0,0,0,0,-6.8499,-6.8539,-6.8612,-6.8689,-6.8728,-6.895,-6.8847,-6.8853,-6.8914,-6.8905,-6.8987,-6.8995,-6.9002,-6.9168,-6.9197,-6.9289,-6.9131,-6.9587,-6.9599,-6.961,-6.9708,-6.9731,-6.9751,0,0,0,0,0,-6.8485,-6.8635,-6.8616,-6.8649,-6.8819,-6.8955,-6.8977,-6.8983,-6.8922,-6.8994,-6.9028,-6.8992,-6.9261,-6.9184,-6.9217,-6.9313,-6.9581,-6.9596,-6.9609,-6.9698,-6.9726,-6.975,0,0,0,0,0,0,-6.8567,-6.8645,-6.8625,-6.8804,-6.8874,-6.8945,-6.9037,-6.9013,-6.9101,-6.9089,-6.9092,-6.9111,-6.927,-6.9307,-6.9221,-6.9497,-6.9411,-6.9433,-6.9468,-6.9495,-6.9516,-6.9504,-6.9141,0,0,0,0,0,-6.8605,-6.8711,-6.8773,-6.8925,-6.8961,-6.8993,-6.9053,-6.9051,-6.9123,-6.9152,-6.9197,-6.9268,-6.9367,-6.9433,-6.9528,-6.9712,-6.9728,-6.9795,-6.9816,-6.9833,-6.9852,-6.995,-6.998,-6.9662,-6.9662,-6.9662,0,0,-6.8687,-6.8742,-6.8809,-6.8943,-6.8997,-6.9104,-6.9018,-6.9136,-6.9215,-6.917,-6.9319,-6.9355,-6.9433,-6.9603,-6.968,-6.9639,-6.9943,-6.9851,-6.9865,-6.9874,-6.9967,-6.9997,-7.0024,-6.9672,-6.967,-6.9669,0,0,-6.889,-6.8943,-6.9075,-6.913,-6.9213,-6.9232,-6.9264,-6.9339,-6.9361,-6.9511,-6.9478,-6.9572,-6.9744,-6.9801,-6.9853,-7.0075,-7.0045,-7.0106,-7.0218,-7.0314,-7.0338,-7.0361,-7.0439,-7.0467,-7.0124,-7.0124,-7.0124,0,-6.898,-6.9142,-6.9145,-6.9266,-6.9325,-6.9288,-6.9421,-6.9474,-6.9583,-6.9624,-6.9576,-6.9791,-6.9841,-7.0023,-7.0077,-7.0121,-7.0155,-7.0096,-7.0335,-7.0357,-7.0378,-7.0452,-7.0482,-7.0131,-7.013,-7.0129,-7.0129,0,-6.9248,-6.9361,-6.9457,-6.9563,-6.9633,-6.9759,-6.9781,-6.9851,-6.9843,-6.9867,-7.0019,-7.0078,-7.0183,-7.0226,-7.022,-7.0407,-7.0379,-7.0333,-7.0247,-7.0415,-7.0485,-7.0513,-7.014,-7.0138,-7.0136,-7.0134,0,0,-6.9508,-6.9614,-6.9649,-6.9696,-6.9783,-6.987,-6.9993,-7.0096,-7.0156,-7.0232,-7.0334,-7.048,-7.0438,-7.0496,-7.0495,-7.058,-7.075,-7.0523,-7.0525,-7.0562,-7.0958,-7.0992,-7.1025,-7.073,-7.0736,-7.074,-7.0951,0,-6.9717,-6.9935,-6.9941,-7.0139,-7.0242,-7.0208,-7.0315,-7.0379,-7.0405,-7.0495,-7.0523,-7.0626,-7.0563,-7.0598,-7.0679,-7.0712,-7.0829,-7.0697,-7.0824,-7.0829,-7.0806,-7.1062,-7.1098,-7.1295,-7.0979,-7.0983,-7.0987,0,-6.9991,-7.0075,-7.0284,-7.0355,-7.0398,-7.0495,-7.0589,-7.0676,-7.0747,-7.076,-7.0825,-7.0811,-7.0935,-7.0844,-7.1014,-7.0924,-7.0976,-7.1,-7.1008,-7.102,-7.0918,-7.108,-7.1358,-7.1387,-7.103,-7.1027,-7.1024,0,-7.0158,-7.0324,-7.047,-7.0511,-7.0598,-7.0666,-7.0705,-7.0771,-7.0832,-7.0914,-7.0954,-7.1049,-7.1101,-7.1174,-7.1186,-7.1119,-7.1356,-7.1267,-7.1369,-7.1369,-7.142,-7.1417,-7.171,-7.1455,-7.1455,-7.1454,-7.1454,0,-7.0391,-7.052,-7.0546,-7.0636,-7.0779,-7.0783,-7.0924,-7.0957,-7.1016,-7.1111,-7.1086,-7.1175,-7.1186,-7.1277,-7.1287,-7.1425,-7.1449,-7.1461,-7.1462,-7.1464,-7.1462,-7.1498,-7.1484,-7.1462,-7.146,-7.1459,-7.1457,0,-7.0602,-7.0625,-7.0782,-7.0851,-7.0871,-7.0973,-7.1031,-7.1116,-7.1138,-7.1258,-7.1286,-7.1322,-7.1428,-7.1447,-7.1572,-7.1578,-7.1743,-7.173,-7.1719,-7.1718,-7.1818,-7.1808,-7.2144,-7.2188,-7.1905,-7.1908,-7.191,0,-7.0749,-7.0848,-7.0927,-7.0988,-7.1031,-7.1131,-7.1193,-7.1201,-7.1266,-7.1354,-7.1428,-7.1531,-7.1615,-7.1785,-7.1822,-7.1916,-7.1905,-7.2016,-7.1919,-7.1917,-7.1906,-7.19,-7.1909,-7.2035,-7.2038,-7.2041,-7.2043,0,-7.1007,-7.1013,-7.1104,-7.1199,-7.1274,-7.1349,-7.142,-7.1471,-7.1488,-7.1562,-7.1671,-7.1736,-7.1863,-7.1965,-7.2059,-7.2098,-7.2073,-7.2073,-7.2101,-7.2103,-7.2092,-7.2098,-7.177,-7.2065,-7.2063,-7.2061,-7.206,-7.2059,-7.119,-7.1275,-7.1344,-7.1446,-7.1499,-7.1566,-7.1649,-7.1681,-7.1772,-7.1876,-7.1875,-7.1993,-7.206,-7.2184,-7.2228,-7.232,-7.2284,-7.2326,-7.2336,-7.2346,-7.2355,-7.2078,-7.2337,-7.2337,-7.2336,-7.2336,-7.2335,0,-7.1446,-7.1488,-7.1582,-7.1681,-7.1761,-7.1731,-7.1807,-7.1875,-7.198,-7.2044,-7.2127,-7.225,-7.2349,-7.2392,-7.2489,-7.2554,-7.2545,-7.2579,-7.2574,-7.2583,-7.2382,-7.2348,-7.2585,-7.2585,-7.2585,-7.2585,-7.2584,-7.2584,-7.1589,-7.1731,-7.1745,-7.1912,-7.1953,-7.2069,-7.2115,-7.2175,-7.2227,-7.2366,-7.2448,-7.2476,-7.2531,-7.2632,-7.272,-7.273,-7.2767,-7.2806,-7.2811,-7.2623,-7.2597,-7.2573,-7.2541,-7.2814,-7.2815,-7.3004,-7.3005,-7.3007]}]]